This demonstration page uses our WeatherBlox Daily Observations layout. Learn more.

Left ArrowRight Arrow

Hourly Observations for June 2, 2021

Temp ( °F °C ) Dew Point ( °F °C ) Humidity (%) Winds ( mph kmh ) Pressure ( in mb ) Visibility ( mi km ) Precip ( " mm )
12:53 am 00:53 Clear 70 21.1 60 15.6 71 71 ESE 8 13 29.92 1013 10 16 0.00 0.00
1:53 am 01:53 Clear 69 20.6 60 15.6 73 73 S 7 11 29.92 1013 10 16 0.00 0.00
2:53 am 02:53 Clear 68 20 60 15.6 76 76 Calm 29.90 1013 10 16 0.00 0.00
3:53 am 03:53 Clear 67 19.4 60 15.6 79 79 Calm 29.90 1013 10 16 0.00 0.00
4:53 am 04:53 Clear 65 18.3 60 15.6 84 84 ENE 7 11 29.90 1013 10 16 0.00 0.00
5:53 am 05:53 Clear 64 17.8 60 15.6 87 87 ENE 8 13 29.91 1013 10 16 0.00 0.00
6:53 am 06:53 Sunny 64 17.8 60 15.6 87 87 ENE 7 11 29.92 1013 10 16 0.00 0.00
7:53 am 07:53 Sunny 66 18.9 61 16.1 84 84 NE 8 13 29.93 1014 10 16 0.00 0.00
8:53 am 08:53 Sunny 70 21.1 61 16.1 73 73 ENE 9 15 29.93 1014 10 16 0.00 0.00
9:53 am 09:53 Sunny 73 22.8 61 16.1 66 66 SE 10 17 29.94 1014 10 16 0.00 0.00
10:53 am 10:53 Sunny 76 24.4 61 16.1 60 60 SE 6 9 29.93 1014 10 16 0.00 0.00
11:53 am 11:53 Sunny 79 26.1 60 15.6 52 52 S 8 13 29.91 1013 10 16 0.00 0.00
12:53 pm 12:53 Sunny 82 27.8 57 13.9 42 42 SE 9 15 29.89 1012 10 16 0.00 0.00
1:53 pm 13:53 Sunny 85 29.4 57 13.9 39 39 SSE 12 19 29.87 1012 10 16 0.00 0.00
2:53 pm 14:53 Sunny 86 30 52 11.1 31 31 Calm 29.84 1010 10 16 0.00 0.00
3:53 pm 15:53 Sunny 87 30.6 53 11.7 31 31 ESE 8 13 29.80 1009 10 16 0.00 0.00
4:53 pm 16:53 Sunny 87 30.6 50 10 28 28 S 3 6 29.77 1008 10 16 0.00 0.00
5:53 pm 17:53 Mostly Sunny 87 30.6 53 11.7 31 31 SE 8 13 29.78 1008 10 16 0.00 0.00
6:53 pm 18:53 Mostly Cloudy with Nearby Thunderstorms 83 28.3 54 12.2 37 37 SE 18 30 29.80 1009 10 16 0.00 0.00
7:01 pm 19:01 Partly Cloudy with Thunderstorms 83 28.3 54 12.2 37 37 SE 20 31 29.73 1007 10 16 0.00 0.00
7:20 pm 19:20 Sunny 81 27.2 55 12.8 41 41 ESE 20 31 29.74 1007 10 16 0.00 0.00
7:53 pm 19:53 Sunny 79 26.1 58 14.4 49 49 ESE 17 28 29.77 1008 10 16 0.00 0.00
8:03 pm 20:03 Sunny with Nearby Thunderstorms 79 26.1 58 14.4 49 49 ESE 16 26 29.72 1006 10 16 0.00 0.00
8:12 pm 20:12 Sunny with Thunderstorms 77 25 57 13.9 50 50 WSW 30 48 29.79 1009 10 16 0.00 0.00
8:30 pm 20:30 Windy with Storms Likely 64 17.8 56 13.3 75 75 W 31 50 29.89 1012 8 13 0.00 0.00
8:53 pm 20:53 Mostly Cloudy with Thunderstorms 62 16.7 59 15 90 90 NW 17 28 29.92 1013 3 5 0.14 3.56
9:00 pm 21:00 Partly Cloudy with Thunderstorms 63 17.2 59 15 87 87 NNW 13 20 29.94 1014 6 10 0.02 0.51
9:33 pm 21:33 Cloudy with Nearby Thunderstorms 67 19.4 60 15.6 79 79 NNE 13 20 29.93 1013 10 16 0.02 0.51
9:42 pm 21:42 Cloudy with Thunderstorms 66 18.9 60 15.6 81 81 NNE 13 20 29.93 1014 10 16 0.03 0.76
9:53 pm 21:53 Cloudy with Nearby Thunderstorms 66 18.9 59 15 78 78 ENE 6 9 29.92 1013 9 14 0.04 1.02
10:06 pm 22:06 Cloudy with Light Rain 67 19.4 58 14.4 73 73 VRB 6 9 29.91 1013 10 16 0.00 0.00
10:43 pm 22:43 Partly Cloudy 68 20 59 15 73 73 E 8 13 29.86 1011 10 16 0.00 0.00
10:53 pm 22:53 Mostly Clear 69 20.6 58 14.4 68 68 ESE 8 13 29.85 1011 10 16 0.00 0.00
11:53 pm 23:53 Clear 67 19.4 58 14.4 73 73 NNW 12 19 29.93 1014 10 16 0.00 0.00

Powered by AerisWeather